Carbondale, IL

9:57 AM CST on February 21, 2018 (GMT -0600)
Southern Illinois

Weather History for KMDH - May, 2014

Change the Weather History Date:

Thursday, May 1, 2014

  Actual Average Record
Temperature  
Mean Temperature 51 °F -  
Max Temperature 60 °F 72 °F 88 °F (1926)
Min Temperature 43 °F 49 °F 30 °F (1963)
Degree Days  
Heating Degree Days 14    
Growing Degree Days 1 (Base 50)    
Moisture  
Dew Point 38 °F    
Average Humidity 64    
Maximum Humidity 86    
Minimum Humidity 45    
Precipitation  
Precipitation 0.00 in - - ()
Sea Level Pressure  
Sea Level Pressure 29.96 in    
Wind  
Wind Speed 7 mph (WSW)    
Max Wind Speed 14 mph    
Max Gust Speed 25 mph    
Visibility 10 miles    
Events      
Averages and records for this station are not official NWS values.
T = Trace of Precipitation, MM = Missing Value Source: NWS Daily Summary

Daily Weather History Graph

Daily Weather History Graph

Search for Another Location

Airport or City:

Trip Planner

Search our weather history database for the weather conditions in past years. The results will help you decide how hot, cold, wet, or windy it might be!

Date:

Astronomy

May. 01, 2014 Rise Set
Actual Time 6:01 AM CDT 7:47 PM CDT
Civil Twilight 5:33 AM CDT 8:15 PM CDT
Nautical Twilight 4:58 AM CDT 8:50 PM CDT
Astronomical Twilight 4:22 AM CDT 9:26 PM CDT
Moon 7:49 AM CDT (5/1) 10:19 PM CDT (5/1)
Length of Visible Light 14h 42m
Length of Day
13h 46m
Waxing Crescent, 7% of the Moon is Illuminated
May 1
Waxing Crescent
May 6
First Quarter
May 14
Full
May 21
Last Quarter
May 28
New

Hourly Weather History & Observations

Time (CDT) Temp. Windchill Dew Point Humidity Pressure Visibility Wind Dir Wind Speed Gust Speed Precip Events Conditions
12:52 AM 46.0 °F 43.1 °F 37.9 °F 73% 29.95 in 10.0 mi SW 5.8 mph - N/A   Scattered Clouds
1:52 AM 46.9 °F - 39.0 °F 74% 29.94 in 10.0 mi SW 5.8 mph - N/A   Overcast
2:52 AM 44.1 °F 41.5 °F 36.0 °F 73% 29.93 in 10.0 mi SW 4.6 mph - N/A   Clear
3:52 AM 44.1 °F 40.8 °F 37.0 °F 76% 29.93 in 10.0 mi WSW 5.8 mph - N/A   Clear
4:52 AM 43.0 °F 37.7 °F 37.0 °F 80% 29.94 in 10.0 mi WSW 9.2 mph - N/A   Clear
5:52 AM 43.0 °F 38.2 °F 36.0 °F 76% 29.95 in 10.0 mi WSW 8.1 mph - N/A   Clear
6:52 AM 44.1 °F 40.1 °F 37.0 °F 76% 29.96 in 10.0 mi WSW 6.9 mph - N/A   Clear
7:52 AM 48.0 °F - 37.9 °F 68% 29.96 in 10.0 mi WSW 10.4 mph - N/A   Clear
8:52 AM 51.1 °F - 37.0 °F 59% 29.97 in 10.0 mi West 11.5 mph - N/A   Clear
9:52 AM 54.0 °F - 39.0 °F 57% 29.95 in 10.0 mi West 6.9 mph - N/A   Partly Cloudy
10:52 AM 55.0 °F - 39.0 °F 55% 29.95 in 10.0 mi West 10.4 mph - N/A   Mostly Cloudy
11:52 AM 54.0 °F - 37.0 °F 53% 29.95 in 10.0 mi WSW 12.7 mph - N/A   Overcast
12:52 PM 57.9 °F - 39.0 °F 49% 29.95 in 10.0 mi WSW 13.8 mph 19.6 mph N/A   Mostly Cloudy
1:52 PM 59.0 °F - 39.0 °F 48% 29.94 in 10.0 mi West 10.4 mph 25.3 mph N/A   Mostly Cloudy
2:52 PM 57.9 °F - 37.0 °F 46% 29.95 in 10.0 mi West 11.5 mph - N/A   Overcast
3:52 PM 59.0 °F - 39.0 °F 48% 29.94 in 10.0 mi West 13.8 mph 20.7 mph N/A   Mostly Cloudy
4:52 PM 57.0 °F - 36.0 °F 45% 29.95 in 10.0 mi West 11.5 mph - N/A   Overcast
5:52 PM 55.9 °F - 36.0 °F 47% 29.96 in 10.0 mi West 10.4 mph - N/A   Overcast
6:52 PM 55.0 °F - 37.0 °F 51% 29.96 in 10.0 mi WNW 9.2 mph - N/A   Overcast
7:52 PM 54.0 °F - 37.0 °F 53% 29.97 in 10.0 mi Calm Calm - N/A   Mostly Cloudy
8:52 PM 51.1 °F - 46.0 °F 83% 29.98 in 10.0 mi Calm Calm - N/A   Overcast
9:52 PM 50.0 °F - 43.0 °F 77% 29.99 in 10.0 mi Calm Calm - N/A   Overcast
10:52 PM 48.0 °F - 44.1 °F 86% 29.99 in 10.0 mi SSW 3.5 mph - N/A   Overcast
11:52 PM 45.0 °F 43.5 °F 41.0 °F 86% 29.99 in 10.0 mi South 3.5 mph - N/A   Clear